Regional Weather Roundup
Issued by NWS

Home | Current Version | Previous Version | Text Only | Print | Product List | Glossary Off
Versions: 1 2 3 4 5 6 7 8 9 10 11 12 13 14 15 16 17 18 19 20 21 22 23 24 25 26 27 28 29 30 31 32 33 34 35 36 37 38 39 40 41 42 43 44 45 46 47 48 49 50

015
ASUS43 KOAX 240610
RWRNE

WEATHER ROUNDUP FOR NEBRASKA
NATIONAL WEATHER SERVICE OMAHA NE
1200 AM CST SAT FEB 24 2018

NOTES: SATELLITE DATA IS BEING USED TO AUGMENT CLOUD COVER ABOVE
       12000 FEET.
       "FAIR" INDICATES FEW OR NO CLOUDS BELOW 12,000 FEET WITH NO
       SIGNIFICANT WEATHER AND/OR OBSTRUCTIONS TO VISIBILITY.


NEZ001>004-019>022-054>056-240700-
NEBRASKA PANHANDLE

CITY           SKY/WX    TMP DP  RH WIND       PRES   REMARKS
SCOTTSBLUFF    LGT SNOW  22  19  89 SE10      29.96F FOG     WCI  11
6HR MIN TEMP:  17; 6HR MAX TEMP:  24; 6HR PCP: TRACE;

ALLIANCE       CLOUDY    19  16  88 SE12      29.97F WCI   7
6HR MIN TEMP:   9; 6HR MAX TEMP:  20;

CHADRON        CLOUDY     5   2  87 CALM      29.99F
6HR MIN TEMP:   2; 6HR MAX TEMP:  18;

GORDON         FAIR       7   3  84 N3        29.98F
6HR MIN TEMP:  -1; 6HR MAX TEMP:  18;

KIMBALL        CLOUDY    23  21  93 SE18      29.90F WCI   9
SIDNEY         CLOUDY    21  19  92 S13       29.97F WCI   9
6HR MIN TEMP:  19; 6HR MAX TEMP:  27;

$$

NEZ057>060-069>072-079>082-240700-
SOUTHWEST NEBRASKA

CITY           SKY/WX    TMP DP  RH WIND       PRES   REMARKS
NORTH PLATTE   CLOUDY    19  15  84 E9        30.08S WCI   8
6HR MIN TEMP:  15; 6HR MAX TEMP:  23;

IMPERIAL       CLOUDY    20  19  96 NE9       30.02F WCI   9
6HR MIN TEMP:  19; 6HR MAX TEMP:  23;

LEXINGTON      CLOUDY    23  21  91 SE10      30.12R WCI  12
MCCOOK         CLOUDY    24  23  96 E12       30.07F FOG     WCI  13
6HR MIN TEMP:  23; 6HR MAX TEMP:  34;

OGALLALA       CLOUDY    20  18  91 E7        30.05S WCI  11
$$

NEZ005>010-023>029-035>040-094-240700-
NORTH CENTRAL NEBRASKA

CITY           SKY/WX    TMP DP  RH WIND       PRES   REMARKS
VALENTINE      MOCLDY    10   6  84 CALM      30.08F
6HR MIN TEMP:   6; 6HR MAX TEMP:  22;

AINSWORTH      PTCLDY     7   5  91 CALM      30.09F
BROKEN BOW     CLOUDY    18  14  84 E7        30.09F WCI   9
6HR MIN TEMP:   3; 6HR MAX TEMP:  19;

O`NEILL        FOG       -1  -4  88 CALM      30.16F VSB 1/4
ORD            PTCLDY     9   7  92 CALM      30.14F
6HR MIN TEMP:   8; 6HR MAX TEMP:  24;

THEDFORD         N/A      9   7  90 CALM      30.08S
$$

NEZ041-046>049-061>064-073>077-083>087-240700-
SOUTH CENTRAL NEBRASKA

CITY           SKY/WX    TMP DP  RH WIND       PRES   REMARKS
GRAND ISLAND   CLOUDY    22  18  85 E10       30.15F WCI  11
6HR MIN TEMP:  21; 6HR MAX TEMP:  26;

AURORA         CLOUDY    20  19  94 E12       30.17S FOG     WCI   8
HASTINGS       CLOUDY    22  18  85 E9        30.14F WCI  12
6HR MIN TEMP:  22; 6HR MAX TEMP:  26;

HEBRON         CLOUDY    27  24  90 NE8       30.15F WCI  19
HOLDREGE       CLOUDY    23  22  93 E10       30.12S WCI  13
KEARNEY        CLOUDY    22  19  89 E10       30.13F WCI  11
YORK           CLOUDY    19  19 100 E10       30.19F WCI   8
$$

NEZ011>018-030>034-042>045-240700-
NORTHEAST NEBRASKA

CITY           SKY/WX    TMP DP  RH WIND       PRES   REMARKS
NORFOLK        CLOUDY    17  16  95 E12       30.19F FOG     WCI   4
6HR MIN TEMP:  12; 6HR MAX TEMP:  21;

ALBION         CLOUDY    13  11  92 CALM      30.18F
BLAIR          CLOUDY    21  19  93 NE9       30.22F FOG     WCI  11
COLUMBUS       CLOUDY    19  17  92 E10       30.22F FOG     WCI   7
FREMONT        CLOUDY    21  20  96 E9        30.23F WCI  10
TEKAMAH        CLOUDY    21  19  92 NE10      30.25F WCI  10
6HR MIN TEMP:  21; 6HR MAX TEMP:  24;

WAYNE          LGT SNOW  16  15  96 E5        30.22F WCI   9
$$

NEZ050>053-065>068-078-088>093-240700-
SOUTHEAST NEBRASKA

CITY           SKY/WX    TMP DP  RH WIND       PRES   REMARKS
LINCOLN        CLOUDY    24  21  88 E5        30.23F FOG     WCI  18
6HR MIN TEMP:  23; 6HR MAX TEMP:  27;

OMAHA EPPLEY   CLOUDY    22  19  89 NE10      30.25F WCI  11
6HR MIN TEMP:  22; 6HR MAX TEMP:  26;

BEATRICE       CLOUDY    27  25  93 NE9       30.17F WCI  17
FALLS CITY     CLOUDY    30  27  88 N12       30.17F WCI  20
6HR MIN TEMP:  30; 6HR MAX TEMP:  34;

NEBRASKA CITY  CLOUDY    27  27 100 NE9       30.20F WCI  18
PLATTSMOUTH    CLOUDY    25  23  94 N7        30.21F WCI  17
$$

NEZ044-045-051>053-067-240700-
OMAHA AREA

CITY           SKY/WX    TMP DP  RH WIND       PRES   REMARKS
OMAHA EPPLEY   CLOUDY    22  19  89 NE10      30.25F WCI  11
6HR MIN TEMP:  22; 6HR MAX TEMP:  26;

BLAIR          CLOUDY    21  19  93 NE9       30.22F FOG     WCI  11
FREMONT        CLOUDY    21  20  96 E9        30.23F WCI  10
MILLARD        CLOUDY    23  20  88 NE5       30.25S WCI  17
PLATTSMOUTH    CLOUDY    25  23  94 N7        30.21F WCI  17
WAHOO          CLOUDY    22  20  92 E8        30.23F FOG     WCI  12
$$




USA.gov is the U.S. government's official web portal to all federal, state and local government web resources and services.